Overview Statistics Trail Chart Weather Telemetry Raw packets
 

This is the latest recevied weather packets stored in our database for station/object K1BES. If no packets are shown the sender has not sent any weather packets the latest 10 day(s).

<< 102 103 104 105 106 107 108 >>
Time Temp. Humidity Pressure Rain* Wind** Luminosity Snow
1787879113 27.22° C 84% 1018.1 hPa 0 mm - 0 W/m² -
1787878809 27.22° C 84% 1017.9 hPa 0 mm - 0 W/m² -
1787878508 27.78° C 84% 1017.8 hPa 0 mm - 0 W/m² -
1787878204 27.78° C 84% 1018 hPa 0 mm - 0 W/m² -
1787877899 27.78° C 84% 1017.8 hPa 0 mm - 0 W/m² -
1787877600 27.78° C 84% 1017.7 hPa 0 mm - 0 W/m² -
1787877290 27.78° C 84% 1017.5 hPa 0 mm - 0 W/m² -
1787876989 27.78° C 84% 1017.7 hPa 0 mm - 0 W/m² -
1787876685 27.78° C 84% 1017.8 hPa 0 mm - 0 W/m² -
1787876380 27.78° C 84% 1017.6 hPa 0 mm - 0 W/m² -
1787876079 27.78° C 83% 1017.9 hPa 0 mm - 0 W/m² -
1787875774 28.33° C 83% 1017.5 hPa 0 mm - 0 W/m² -
1787875473 28.33° C 82% 1017.6 hPa 0 mm - 1 W/m² -
1787875172 28.33° C 81% 1017.4 hPa 0 mm - 1 W/m² -
1787874866 28.89° C 81% 1017.6 hPa 0 mm - 3 W/m² -
1787874566 28.89° C 80% 1017.5 hPa 0 mm - 6 W/m² -
1787874260 28.89° C 80% 1017.4 hPa 0 mm - 9 W/m² -
1787873955 29.44° C 79% 1017.5 hPa 0 mm - 13 W/m² -
1787873655 29.44° C 78% 1017.4 hPa 0 mm - 18 W/m² -
1787873349 29.44° C 78% 1017.4 hPa 0 mm - 23 W/m² -
1787873049 30° C 78% 1017.5 hPa 0 mm - 28 W/m² -
1787872744 30° C 77% 1017.4 hPa 0 mm - 38 W/m² -
1787872440 30° C 77% 1017.3 hPa 0 mm - 51 W/m² -
1787872140 30° C 76% 1017.6 hPa 0 mm - 62 W/m² -
1787871839 30° C 76% 1017.3 hPa 0 mm - 73 W/m² -

* Rain latest hour (hover to see other rain measurements)
** Current wind speed in m/s (hover to see current wind gust speed)